Regional Weather Roundup
Issued by NWS

Home | Current Version | Previous Version | Text Only | Print | Product List | Glossary Off
Versions: 1 2 3 4 5 6 7 8 9 10 11 12 13 14 15 16 17 18 19 20 21 22 23 24 25 26 27 28 29 30 31 32 33 34 35 36 37 38 39 40 41 42 43 44 45 46 47 48 49 50

000
ASUS43 KLOT 230706
RWRIL

ILLINOIS REGIONAL WEATHER ROUNDUP
NATIONAL WEATHER SERVICE CHICAGO/ROMEOVILLE IL
200 AM CDT THU OCT 23 2014

NOTE: "FAIR" INDICATES FEW OR NO CLOUDS BELOW 12,000 FEET WITH NO
SIGNIFICANT WEATHER AND/OR OBSTRUCTIONS TO VISIBILITY.

* THESE STATIONS ARE NOT UNDER NWS QUALITY CONTROL. THEY ALSO MAY NOT
  REPORT WEATHER SUCH AS PRECIPITATION OR FOG.

ILZ001-002-007-009-015-016-024-230800-
NORTHWEST ILLINOIS

CITY           SKY/WX    TMP DP  RH WIND       PRES   REMARKS
MOLINE         PTCLDY    42  35  76 SE5       30.18F
STERLING*      CLEAR     37  32  81 SE5       30.21S WCI  34
SAVANNA*       PTCLDY    40  33  77 SE5       30.20F
$$

ILZ003-004-008-010-011-017-018-230800-
NORTH CENTRAL ILLINOIS

CITY           SKY/WX    TMP DP  RH WIND       PRES   REMARKS
ROCKFORD       CLEAR     39  33  79 S5        30.24R
FREEPORT*      PTCLDY    35  32  91 CALM      30.22S
ROCHELLE*      CLEAR     36  34  93 SE3       30.23S
DE KALB*       CLEAR     37  34  90 SE7       30.23F WCI  31
PERU*          CLEAR     40  36  86 SE6       30.23S
$$

ILZ005-006-012>014-019>023-230800-
NORTHEAST ILLINOIS

CITY           SKY/WX    TMP DP  RH WIND       PRES   REMARKS
CHICAGO-OHARE  CLEAR     38  35  89 SE5       30.24F WCI  34
CHICAGO-MIDWAY CLEAR     44  38  79 SE8       30.25F
AURORA         CLEAR     36  32  85 CALM      30.23F
LANSING*       CLEAR     35  34  97 SE3       30.26S FOG
JOLIET*        CLEAR     39  36  87 SE3       30.24F
WAUKEGAN       CLEAR     32  31  96 CALM      30.23F
DUPAGE AIRPORT CLEAR     35  32  88 CALM      30.23F
KANKAKEE*      CLEAR     34  33  96 E6        30.26F WCI  29
WHEELING       CLEAR     37  33  85 CALM      30.26F
MORRIS*        CLEAR     36  35  99 E5        30.23F WCI  32
ROMEOVILLE*    CLEAR     37  37  97 SE7       30.24S FOG     WCI  32
NORTHERLY ISL    N/A     45  39  79 S6          N/A
$$

LMZ740>746-230800-
SOUTHERN LAKE MICHIGAN

STATION/POSITION SKY/WX   TEMP    WIND        PRES    VSBY  WAVE
                          AIR SEA DIR/SP/G                  HT/PER
                          (F)     (DEG/KT/KT) (MB)    (MI)  (FT/S)
SOUTHERN BUOY              50 54  170/ 12/ 14 1024.8F         1/ 3
WAUKEGAN HARBOR            45      CALM  /  3   N/A
HARRISON CRIB              49     150/ 11/ 15   N/A
BURNHAM HARBOR             45     170/  6/  8   N/A
CALUMET HARBOR             44     160/  5/  8 1023.1F
MICHIGAN CITY              42     130/  9/ 11   N/A
$$

ILZ025>027-034>036-040-047-049-050-058-095>099-230800-
WEST-CENTRAL ILLINOIS

CITY           SKY/WX    TMP DP  RH WIND       PRES   REMARKS
QUINCY         CLEAR     46  39  76 SE6       30.18F
GALESBURG*     CLEAR     44  37  78 S6        30.19S
MACOMB*        CLEAR     40  37  86 S8        30.21F
JACKSONVILLE*  CLEAR     44  38  79 SE3       30.21S
PITTSFIELD*    PTCLDY    45  40  83 SE6       30.21S
$$

ILZ028>032-037-038-041>044-048-051>054-059>061-230800-
CENTRAL ILLINOIS

CITY           SKY/WX    TMP DP  RH WIND       PRES   REMARKS
PONTIAC        CLEAR     33  32  97 SE7       30.24F WCI  26
BLOOMINGTON    CLEAR     41  36  82 S7        30.24F
DECATUR        CLEAR     36  33  89 CALM      30.23F
PEORIA         CLEAR     42  35  76 CALM      30.22F
LACON*         CLEAR     36  32  87 S5        30.21F WCI  32
LINCOLN*       CLEAR     38  35  89 CALM      30.22F
SPRINGFIELD    CLEAR     39  35  86 E3        30.23S
TAYLORVILLE    CLEAR     37  36  93 SE3       30.23F
$$

ILZ033-039-045-046-055>057-062-063-230800-
EAST-CENTRAL ILLINOIS

CITY           SKY/WX    TMP DP  RH WIND       PRES   REMARKS
CHAMPAIGN      CLEAR     37  34  89 E7        30.24F WCI  32
DANVILLE*      CLEAR     37  35  91 CALM      30.23S
RANTOUL*       CLEAR     40  36  85 CALM      30.24F
MATTOON        CLEAR     41  37  86 SE5       30.23F
PARIS*         CLEAR     34  33  99 CALM      30.26F
$$

ILZ079-100>102-230800-
SOUTHWEST ILLINOIS

CITY           SKY/WX    TMP DP  RH WIND       PRES   REMARKS
ALTON          CLEAR     39  37  93 E3        30.23S
BELLEVILLE     FOG       40  39  99 CALM      30.22S VSB 3/4
CAHOKIA*       CLEAR     41  38  89 CALM      30.23S
SPARTA*        FOG       40  38  95 CALM      30.23F VSB 1/2
$$

ILZ064>066-069>071-074>076-080>082-084>086-088>090-092>094-230800-
SOUTH-CENTRAL ILLINOIS

CITY           SKY/WX    TMP DP  RH WIND       PRES   REMARKS
CARBONDALE     CLEAR     37  35  92 CALM      30.23F
CAIRO*         FOG       40  37  90 CALM      30.23S VSB 3/4
EFFINGHAM*     CLEAR     37  35  91 CALM      30.24F
MARION           N/A     39  39 100 CALM      30.24S FOG
MT. VERNON     CLEAR     36  30  80 CALM      30.24S
CENTRALIA*     CLEAR     36  34  94 CALM      30.23F
SALEM*         CLEAR     39  38  97 CALM      30.23F
METROPOLIS*    CLEAR     40  40 100 CALM      30.22S
$$

ILZ067-068-072-073-078-083-087-091-230800-
SOUTHEAST ILLINOIS

CITY           SKY/WX    TMP DP  RH WIND       PRES   REMARKS
LAWRENCEVILLE  CLEAR     39  38  96 CALM      30.26S
FLORA*         CLEAR     38  38  99 CALM      30.25F
FAIRFIELD*     CLEAR     42  40  91 N3        30.23F
HARRISBURG*    CLEAR     38  38 100 CALM      30.24F
ROBINSON*      CLEAR     36  36 100 CALM      30.27S FOG
CARMI*         CLEAR     38  38 100 CALM      30.23F
$$

ABBREVIATIONS USED IN REMARKS
   TC - TEMPERATURE IN CELSIUS
  WCI - WIND CHILL INDEX
   HX - HEAT INDEX
  VSB - VISIBILITY
$$




USA.gov is the U.S. government's official web portal to all federal, state and local government web resources and services.